TimeMST,TemperatureF,Dew PointF,Humidity,Sea Level PressureIn,VisibilityMPH,Wind Direction,Wind SpeedMPH,Gust SpeedMPH,PrecipitationIn,Events,Conditions,WindDirDegrees,DateUTC
12:54 AM,39.0,8.1,28,29.91,10.0,Calm,Calm,-,N/A,,Clear,0,2013-05-16 07:54:00
1:54 AM,37.0,9.0,31,29.91,10.0,Calm,Calm,-,N/A,,Clear,0,2013-05-16 08:54:00
2:54 AM,35.1,9.0,34,29.91,10.0,Calm,Calm,-,N/A,,Clear,0,2013-05-16 09:54:00
3:54 AM,33.1,10.0,38,29.92,10.0,Calm,Calm,-,N/A,,Clear,0,2013-05-16 10:54:00
4:54 AM,34.0,12.0,40,29.91,10.0,Calm,Calm,-,N/A,,Clear,0,2013-05-16 11:54:00
5:54 AM,34.0,12.0,40,29.93,10.0,Calm,Calm,-,N/A,,Clear,0,2013-05-16 12:54:00
6:10 AM,37.4,14.0,38,30.12,10.0,Calm,Calm,-,N/A,,Partly Cloudy,0,2013-05-16 13:10:00
6:54 AM,50.0,19.0,29,29.89,10.0,Calm,Calm,-,N/A,,Clear,0,2013-05-16 13:54:00
7:54 AM,62.1,18.0,18,29.87,10.0,SSW,13.8,20.7,N/A,,Clear,200,2013-05-16 14:54:00
8:54 AM,66.0,21.9,19,29.88,10.0,SSW,10.4,21.9,N/A,,Clear,200,2013-05-16 15:54:00
9:54 AM,69.1,21.9,17,29.85,10.0,SSW,15.0,26.5,N/A,,Clear,210,2013-05-16 16:54:00
10:54 AM,71.1,19.9,14,29.86,10.0,SW,15.0,25.3,N/A,,Clear,220,2013-05-16 17:54:00
12:54 PM,75.0,18.0,12,29.86,10.0,SSW,12.7,28.8,N/A,,Clear,210,2013-05-16 19:54:00
1:54 PM,75.9,17.1,11,29.84,10.0,SSW,16.1,26.5,N/A,,Clear,210,2013-05-16 20:54:00
3:54 PM,75.9,12.9,9,29.80,10.0,SW,25.3,38.0,N/A,,Clear,220,2013-05-16 22:54:00
4:54 PM,75.9,8.1,7,29.80,10.0,SW,19.6,29.9,N/A,,Clear,230,2013-05-16 23:54:00
5:54 PM,72.0,10.0,9,29.81,10.0,SW,21.9,29.9,N/A,,Clear,230,2013-05-17 00:54:00
6:54 PM,68.0,14.0,12,29.78,10.0,SW,12.7,-,N/A,,Clear,230,2013-05-17 01:54:00
7:54 PM,62.1,14.0,15,29.77,10.0,SW,10.4,-,N/A,,Clear,220,2013-05-17 02:54:00
8:54 PM,59.0,16.0,19,29.78,10.0,SW,5.8,-,N/A,,Clear,230,2013-05-17 03:54:00
9:54 PM,51.1,17.1,26,29.81,10.0,SW,4.6,-,N/A,,Clear,220,2013-05-17 04:54:00
10:54 PM,53.1,18.0,25,29.80,10.0,WSW,6.9,-,N/A,,Clear,240,2013-05-17 05:54:00
11:54 PM,50.0,19.0,29,29.79,10.0,SW,4.6,-,N/A,,Clear,220,2013-05-17 06:54:00